Theta_e
322 313 312 306 299 295 291 294 296 296 298 302 301 300 300 305 299 296 319 337 339 341 345 346 348 351 351 351 351 351 351 350 349 345 343 339 338 338 337 336 336 335 336 339 341 345 344 341 340
315 311 306 299 293 290 291 294 294 296 303 305 304 305 306 306 314 319 329 335 342 343 346 347 346 350 352 350 350 351 351 350 348 345 342 340 338 336 334 333 332 333 335 338 340 343 341 339 338
312 305 304 294 289 289 290 294 295 300 303 300 303 307 307 309 315 320 325 338 343 344 346 346 346 350 349 349 350 350 349 350 347 344 342 341 339 338 334 331 330 331 333 335 339 340 338 336 335
308 305 298 293 293 294 295 295 297 300 302 301 305 304 310 315 316 321 339 342 342 343 344 344 348 350 350 349 349 350 350 349 347 343 341 341 340 338 335 331 328 329 331 333 336 336 333 330 329
302 299 293 291 293 295 294 296 299 299 298 301 302 301 308 315 323 325 339 341 341 342 343 346 345 348 349 349 349 349 349 348 348 344 341 342 340 338 335 332 328 327 328 330 331 329 326 325 325
300 297 291 289 291 295 296 296 298 297 298 300 302 304 307 312 323 326 338 340 342 342 343 345 340 342 345 347 348 348 348 347 347 346 342 341 340 338 336 333 330 327 326 326 327 326 323 321 323
298 294 290 289 290 293 295 296 296 296 298 299 305 302 306 311 322 327 334 336 340 341 342 343 345 342 338 341 342 344 345 345 345 344 344 342 341 339 337 336 332 330 327 325 324 323 321 320 319
295 293 289 289 290 293 296 295 296 297 297 301 303 300 303 312 317 321 325 327 331 337 338 340 342 343 343 343 335 337 339 341 341 341 338 336 336 335 333 331 332 329 327 325 323 321 320 318 317
296 291 288 290 290 294 294 295 296 298 298 299 300 302 304 313 313 316 317 318 320 322 328 335 336 337 338 338 334 331 334 335 335 335 331 331 336 335 332 329 330 328 324 321 320 319 318 316 316
292 289 291 292 292 293 295 295 296 297 296 297 298 300 305 311 312 317 319 321 320 319 316 320 325 328 332 337 339 340 341 341 340 340 339 337 335 335 332 326 326 326 324 320 317 314 310 307 308
292 289 292 294 295 296 295 294 296 295 294 297 298 299 304 309 311 317 319 322 321 318 314 313 316 318 323 327 337 339 341 340 340 339 338 335 333 332 331 326 322 317 315 313 311 309 307 307 307
291 292 293 297 297 295 294 295 295 295 298 299 299 300 304 308 311 315 318 317 313 311 313 312 313 315 317 319 323 335 338 338 338 338 337 336 333 332 329 326 321 318 314 311 311 309 308 306 306
292 293 295 296 295 294 296 294 295 295 297 298 297 300 303 308 311 308 312 312 309 309 309 311 312 313 315 316 321 331 334 336 337 335 336 336 332 331 329 326 324 318 316 312 311 309 306 305 304
294 295 294 295 295 295 295 294 295 297 296 297 296 298 301 305 307 303 302 305 303 305 307 309 310 312 313 315 321 329 331 331 331 332 334 333 332 331 327 326 321 318 316 314 311 308 306 303 300
293 291 293 292 294 294 295 292 294 296 296 296 296 296 297 300 302 304 305 302 302 303 305 307 308 311 313 315 320 325 327 328 326 327 329 332 331 330 326 322 318 317 315 313 311 308 303 298 295
290 290 287 291 293 294 293 289 294 294 295 296 295 294 294 296 300 301 301 301 301 303 304 306 309 312 313 315 318 321 322 324 323 323 325 326 326 325 323 320 317 315 314 311 308 303 299 294 292
287 284 285 289 293 292 291 289 293 294 293 294 294 294 294 294 296 297 299 300 300 302 304 305 308 311 313 315 315 316 317 320 318 320 319 320 321 321 320 317 313 312 308 306 304 300 296 292 290
284 285 285 286 290 290 289 289 292 293 293 294 294 294 294 294 296 299 297 298 299 301 303 305 306 310 312 311 309 308 309 312 313 314 314 315 316 317 316 312 310 308 304 302 301 297 294 293 290
287 285 285 287 291 290 289 289 291 295 292 292 294 294 295 295 299 297 297 297 297 300 302 303 304 307 309 307 307 305 306 306 307 308 309 310 311 312 312 310 304 304 302 301 299 295 292 289 289
287 285 286 288 289 290 289 289 292 293 295 295 296 297 296 297 295 296 295 295 296 299 301 302 304 306 307 309 305 304 302 301 303 302 303 305 306 306 307 304 301 299 298 298 297 295 292 290 291
286 285 285 287 288 288 287 286 288 292 292 293 294 297 297 298 298 297 293 294 296 297 300 302 303 305 307 307 299 295 295 296 297 297 298 299 301 302 301 300 297 297 300 299 298 295 293 290 288
284 289 288 286 286 282 286 280 286 290 291 292 295 295 296 297 296 296 293 294 294 297 300 303 303 305 306 302 301 300 302 297 298 298 298 295 296 297 298 294 294 296 299 298 296 295 294 292 289
287 289 288 287 285 283 283 282 286 287 289 292 295 297 298 295 295 296 294 295 295 297 299 302 303 303 305 302 304 302 299 296 295 294 294 293 292 294 292 290 291 293 295 296 295 291 290 291 288
290 288 287 285 284 279 283 284 283 286 290 292 294 295 295 294 294 294 294 293 293 295 298 301 301 301 302 302 302 302 301 293 293 291 292 291 289 289 289 287 289 290 291 291 291 289 289 287 286
288 286 279 277 276 279 282 281 287 289 291 292 295 296 294 294 294 294 293 291 292 294 297 299 300 300 299 299 300 300 299 296 295 293 292 289 287 286 286 286 286 286 286 286 286 286 286 285 285
287 286 280 274 274 277 281 280 286 291 292 292 292 293 292 293 293 293 293 292 291 294 296 298 299 300 298 298 298 299 299 296 296 295 294 292 291 289 286 286 285 284 284 284 284 285 284 285 284
286 284 287 282 270 276 280 283 288 289 290 291 294 291 293 293 293 293 292 290 291 293 295 297 299 300 297 297 297 296 296 296 295 294 292 291 289 288 285 285 284 283 283 283 284 283 283 284 283
287 290 283 281 274 271 278 280 284 288 291 292 291 293 293 293 293 293 291 290 290 293 295 296 298 299 297 297 295 295 294 293 293 291 289 286 285 284 283 283 283 282 283 282 283 282 282 283 282
286 285 284 284 281 275 273 281 286 289 291 291 292 292 293 293 293 293 291 289 290 292 293 295 297 297 294 294 293 293 293 291 290 289 289 286 285 283 283 282 282 282 281 281 282 282 281 281 281
285 285 285 281 278 279 278 284 288 291 291 291 292 293 293 293 293 292 290 289 289 290 292 294 295 295 294 293 291 291 290 290 288 289 287 285 284 283 283 281 282 281 281 281 281 280 281 280 280
Wind_Speed
4 3 2 6 5 5 1 3 1 3 1 1 3 4 4 2 2 3 0 6 9 11 10 11 12 12 12 11 11 11 13 14 16 15 15 15 16 16 16 16 17 16 17 17 17 18 20 20 20
2 0 5 3 6 3 3 2 5 4 2 6 4 3 2 2 1 5 6 6 10 10 9 10 11 13 12 11 11 11 12 14 16 15 15 15 16 16 17 17 16 17 18 18 17 19 19 19 20
2 4 5 5 3 4 4 5 5 2 6 2 4 3 4 4 1 4 1 10 11 10 10 10 11 12 13 12 11 10 13 14 15 14 15 15 15 16 16 17 18 18 19 18 18 20 19 21 21
3 5 5 5 2 3 2 5 6 6 3 0 3 4 1 2 3 1 6 12 12 10 9 10 11 14 13 12 11 11 13 13 15 14 15 15 15 16 16 17 17 18 18 19 19 20 21 21 21
5 4 5 4 2 3 4 2 7 5 2 2 2 4 2 2 1 1 9 10 12 9 8 9 10 12 12 12 11 11 12 13 14 14 15 15 15 16 16 17 17 18 18 19 20 20 20 21 21
5 4 4 2 3 3 2 5 6 3 3 2 3 6 4 0 2 2 7 9 9 11 9 8 9 10 11 11 10 10 9 11 12 15 14 14 15 16 16 17 18 18 18 19 19 19 20 20 20
7 5 4 4 3 2 5 7 5 6 5 4 5 5 2 2 4 4 7 6 6 7 8 7 7 8 8 9 9 9 9 10 11 13 14 13 13 14 14 15 18 19 19 19 19 19 20 21 20
6 6 4 3 5 4 5 6 1 6 5 2 4 4 3 4 6 6 6 6 5 5 6 7 7 6 6 6 8 8 7 8 9 10 12 11 11 11 12 12 16 19 19 19 19 19 20 21 20
3 6 3 6 7 4 5 5 1 1 5 2 4 3 1 5 9 7 5 4 4 3 5 5 8 6 7 6 6 6 9 10 10 10 11 10 8 9 11 10 14 19 19 19 19 19 20 20 20
6 4 8 5 5 3 5 4 7 4 3 3 3 2 1 6 7 10 9 9 6 7 5 4 5 6 4 4 8 8 7 7 8 9 10 8 9 8 9 10 13 15 18 19 19 19 18 13 8
3 4 4 4 3 3 4 2 5 7 4 8 9 6 6 7 8 10 9 8 10 6 5 5 5 4 4 3 3 4 4 5 6 10 9 8 6 6 6 5 5 6 9 8 10 10 8 11 9
5 1 3 3 3 4 6 5 4 6 6 2 8 4 7 11 13 13 12 9 8 7 8 6 5 4 4 2 2 2 2 5 5 7 10 8 5 6 6 5 5 6 5 8 8 7 10 12 12
3 3 1 0 2 2 4 3 6 8 7 1 4 6 10 11 11 5 5 5 5 7 7 8 5 5 4 4 4 4 3 3 5 7 9 7 7 7 6 6 6 6 6 7 8 8 9 10 11
3 3 1 1 2 2 3 3 1 5 4 4 4 8 8 11 13 5 7 10 9 7 8 7 7 5 5 5 6 5 4 3 3 2 5 9 8 8 8 7 6 6 6 6 9 7 8 8 8
2 1 5 1 1 1 2 6 11 3 2 6 8 7 8 11 7 15 13 12 11 7 7 8 7 6 6 6 6 5 4 4 3 2 3 7 8 9 10 7 7 5 6 10 10 9 9 9 8
4 5 2 3 1 2 2 9 7 1 5 11 9 7 8 11 14 10 8 9 9 7 9 7 6 7 7 6 5 4 3 4 3 3 3 5 8 9 9 8 7 7 6 8 9 8 8 8 8
6 2 2 8 4 0 3 7 5 1 3 8 8 8 8 9 10 13 12 11 10 10 8 9 8 9 8 6 4 4 4 5 4 4 3 5 8 10 9 8 7 8 7 7 9 8 8 9 10
5 3 3 5 2 1 4 12 11 8 4 10 8 9 10 12 19 14 12 11 10 9 8 7 8 8 7 5 4 3 2 3 3 3 4 6 6 10 10 8 10 9 8 8 8 12 7 10 10
6 3 4 4 3 3 8 10 12 13 5 10 11 12 14 15 17 9 10 11 10 9 11 11 11 10 8 5 5 3 4 3 3 2 4 5 6 8 9 8 9 8 10 11 11 11 15 8 11
3 2 6 5 2 4 6 16 12 9 15 12 16 17 17 13 9 10 10 12 14 13 13 12 12 11 10 8 3 3 3 1 2 2 3 4 6 6 8 10 9 9 9 12 13 14 9 6 6
4 6 5 7 3 3 6 10 7 6 9 8 13 17 13 18 18 11 10 13 11 14 16 15 15 14 12 10 7 4 5 3 3 3 3 3 6 5 8 7 9 9 9 11 13 13 10 9 4
4 8 4 2 3 5 2 8 10 8 9 8 12 12 19 18 9 7 9 11 15 18 13 14 14 14 13 13 10 10 6 6 4 5 4 4 5 6 7 7 9 10 8 12 12 10 8 7 7
7 6 7 3 3 4 2 3 11 3 8 11 15 17 16 10 10 13 11 14 15 12 15 14 14 14 13 14 14 11 7 3 4 5 9 6 4 5 6 6 9 9 8 10 13 11 9 5 5
10 7 6 5 2 5 9 8 5 6 8 7 7 10 10 6 8 9 7 6 6 7 11 12 15 15 14 15 14 14 13 9 8 7 7 6 4 4 5 5 7 7 8 11 10 8 9 7 5
1 6 2 4 1 10 2 5 11 8 10 9 12 12 7 6 6 6 6 7 6 10 11 12 15 17 15 16 15 15 13 13 14 13 9 10 6 3 7 7 7 7 6 7 8 8 8 8 8
10 9 8 9 5 4 3 10 11 9 10 10 10 12 6 3 4 7 7 7 7 9 11 13 15 15 15 16 16 13 13 9 8 12 9 9 9 9 10 9 8 8 8 8 8 6 6 7 7
7 8 2 4 3 3 7 11 10 8 12 11 16 4 8 8 8 10 7 7 6 8 11 13 14 14 15 14 12 12 12 12 11 12 9 7 5 8 11 10 10 9 9 10 10 7 8 7 6
5 6 4 2 4 5 7 7 11 5 7 10 7 9 8 6 7 8 6 7 5 6 8 9 12 15 12 13 12 11 11 10 9 10 11 10 7 7 10 11 10 10 9 9 8 7 8 9 6
4 4 2 5 5 6 2 10 9 9 7 9 8 6 4 5 6 5 5 5 6 5 9 10 10 11 11 12 13 13 12 12 10 10 10 10 9 10 11 10 11 11 10 9 8 9 10 10 9
1 4 7 6 5 4 3 15 3 6 5 4 6 7 6 4 4 5 5 5 5 7 7 10 11 12 13 12 12 12 12 12 12 12 12 11 12 11 12 12 11 11 11 10 11 11 9 11 11
Wind_Direction
335 338 83 45 59 66 132 229 347 167 197 178 102 144 177 72 138 149 259 161 149 145 152 148 138 138 127 119 114 124 123 116 110 99 87 82 82 80 79 78 77 80 83 84 83 84 80 80 78
299 248 49 80 85 83 262 242 209 215 129 130 100 91 83 106 136 120 134 179 149 139 140 141 142 135 132 130 127 123 130 116 111 101 94 89 82 81 80 80 79 80 81 80 84 84 84 81 76
118 38 78 87 105 169 198 198 189 114 150 213 104 37 138 150 123 145 203 161 149 144 146 149 144 134 133 129 124 125 123 120 116 108 98 93 89 83 79 75 75 76 81 81 83 84 80 76 72
59 22 48 79 162 234 226 178 157 135 260 115 124 100 300 244 160 141 144 150 146 148 150 153 143 138 137 134 132 125 124 123 122 112 104 101 92 85 82 81 80 80 80 80 79 79 76 74 73
40 53 62 81 282 267 255 174 148 157 153 155 200 177 177 245 266 212 154 150 147 152 153 154 144 140 141 139 138 133 132 131 129 121 116 110 100 93 89 87 86 86 85 84 82 81 80 77 76
51 93 68 182 240 279 230 165 142 167 145 157 109 148 200 12 165 162 166 157 155 155 159 158 150 145 143 142 140 134 133 133 135 129 122 116 107 101 95 92 90 89 88 88 89 89 86 83 81
111 84 172 158 201 214 198 155 168 171 159 233 148 138 246 230 157 148 141 138 150 159 158 159 155 152 142 143 141 141 142 138 136 132 126 118 109 103 96 94 93 91 89 88 89 89 88 86 82
101 90 113 203 194 241 185 179 165 158 213 98 178 190 204 190 143 130 119 120 121 143 161 159 159 154 148 144 148 144 138 131 126 130 127 122 113 107 98 93 99 96 92 89 90 91 88 84 81
128 67 178 199 157 229 144 177 165 150 122 224 197 172 163 125 127 125 131 121 135 144 153 163 166 162 164 162 169 165 157 148 142 137 133 125 128 120 107 97 102 102 97 96 94 92 91 87 82
83 117 215 190 190 192 184 192 168 157 134 243 250 231 106 148 160 165 175 173 177 173 171 162 155 157 159 176 185 188 173 165 160 156 153 145 145 138 123 110 100 100 103 98 97 94 90 86 85
137 177 186 199 214 190 178 228 181 140 220 218 206 186 175 177 183 185 191 185 186 174 173 180 172 168 179 196 213 187 182 169 169 171 163 153 147 139 128 124 110 99 89 100 95 91 85 84 82
95 228 188 170 155 147 169 133 203 197 219 136 223 161 163 185 195 196 197 190 174 175 179 179 184 185 200 200 228 265 202 173 174 174 166 167 150 149 139 130 121 111 113 106 102 96 94 87 82
99 200 231 131 135 158 136 218 225 237 230 125 119 170 186 195 205 214 207 196 181 193 185 189 186 198 202 209 215 218 210 189 181 171 174 167 154 154 138 137 131 124 126 120 108 103 101 92 88
142 153 276 311 181 179 199 207 152 267 145 180 190 214 210 209 204 186 200 207 199 196 198 187 201 202 201 213 215 211 186 219 171 165 172 171 160 158 146 139 128 137 129 126 113 112 108 94 87
65 354 330 243 297 250 188 293 237 187 163 217 228 239 232 228 206 216 212 206 191 199 190 196 196 198 206 216 218 212 190 188 187 172 160 173 160 158 145 140 137 153 131 123 112 105 98 96 94
61 54 10 312 170 329 128 264 270 339 201 244 244 240 240 238 227 228 219 210 197 186 194 188 189 194 200 199 212 194 200 192 167 159 166 157 141 149 145 141 142 143 131 126 118 118 107 103 102
10 199 218 317 200 25 159 267 271 6 202 267 258 256 246 256 252 234 218 210 202 199 188 193 191 194 191 179 191 160 180 190 147 155 161 145 146 146 142 141 129 136 127 123 122 118 122 118 108
195 184 239 247 247 193 243 255 275 267 220 260 266 259 248 244 242 232 209 206 200 195 193 190 188 190 176 146 154 126 138 174 140 157 159 147 147 145 136 139 140 138 132 125 123 122 117 122 122
132 153 222 237 226 219 236 260 262 272 249 258 258 252 247 241 249 215 204 198 192 194 193 193 182 185 173 163 172 163 176 178 153 164 140 146 141 142 141 143 139 145 144 140 138 130 131 126 134
142 144 262 277 236 192 275 271 252 240 255 230 241 247 242 244 237 221 198 193 198 198 198 190 190 183 186 176 151 147 144 164 145 145 156 149 138 143 144 149 156 154 133 140 149 149 144 139 185
193 180 225 233 337 251 336 284 278 266 256 256 246 246 249 237 244 233 199 203 193 201 195 193 190 185 185 171 132 101 89 93 146 163 165 167 152 158 144 165 159 150 150 161 163 162 161 157 185
213 205 157 171 43 258 50 286 284 254 250 249 257 240 243 242 240 239 202 203 205 212 195 193 187 185 182 166 170 175 183 164 186 163 164 159 150 153 152 161 155 153 161 165 171 168 167 150 154
218 130 157 141 174 349 329 278 259 27 277 251 248 249 251 230 215 234 216 214 212 193 192 190 182 184 182 179 184 186 185 153 150 145 151 156 139 147 146 158 146 155 167 170 169 171 169 156 149
147 79 51 51 82 286 190 187 198 185 217 260 257 253 253 238 230 238 240 217 205 176 181 182 183 188 184 182 187 191 186 164 156 158 160 163 161 143 151 156 161 162 165 169 171 169 167 158 142
125 107 317 331 15 235 322 219 262 250 236 227 252 269 267 227 226 257 229 216 196 182 182 184 187 191 183 186 189 191 183 175 175 171 171 162 171 162 180 168 169 169 165 159 155 160 156 157 155
200 164 169 205 200 261 32 240 253 235 259 256 260 255 301 264 258 256 249 232 206 188 185 187 191 194 188 188 191 185 180 180 181 181 177 179 185 173 171 172 171 162 157 153 154 150 145 144 139
202 208 148 93 68 40 222 277 289 269 277 266 263 321 275 252 235 239 248 235 205 187 191 193 194 199 190 190 186 186 179 180 182 180 176 181 173 166 166 166 163 160 158 158 154 149 142 138 133
160 173 92 346 186 242 269 268 237 273 264 265 284 281 303 249 244 238 224 231 210 192 188 192 199 204 191 182 178 182 182 179 172 170 180 175 156 148 160 162 160 158 156 152 146 137 135 132 129
145 211 133 133 157 182 278 265 215 219 240 265 290 286 290 265 251 255 234 223 210 195 184 191 193 188 183 183 178 176 180 179 169 178 181 175 161 160 164 168 161 161 159 154 143 145 146 140 140
101 219 152 144 223 245 169 268 167 225 218 265 286 293 298 304 280 283 266 223 206 215 197 193 188 189 189 184 181 185 179 177 175 182 178 168 169 169 169 164 164 166 162 160 157 154 158 153 156